Weather History for Spirit of St Louis, MO

Change the Weather History Date:

Monday, June 24, 2013

  Actual Average Record
Temperature  
Mean Temperature 78 °F -  
Max Temperature 91 °F 83 °F 100 °F (2012)
Min Temperature 66 °F 62 °F 55 °F (2001)
Cooling Degree Days 14    
Growing Degree Days 28 (Base 50)    
Moisture  
Dew Point 70 °F    
Average Humidity 70    
Maximum Humidity 93    
Minimum Humidity 50    
Precipitation  
Precipitation 0.00 in - - ()
Sea Level Pressure  
Sea Level Pressure 29.98 in    
Wind  
Wind Speed 4 mph (SSW)    
Max Wind Speed 10 mph    
Max Gust Speed -    
Visibility 10 miles    
Events      
Averages and records for this station are not official NWS values.
T = Trace of Precipitation, MM = Missing Value Source: NWS Daily Summary

Daily Weather History Graph

Daily Weather History Graph

Search for Another Location

Airport:

Trip Planner

Search our weather history database for the weather conditions in past years. The results will help you decide how hot, cold, wet, or windy it might be!

Date:

Astronomy

Jun. 24, 2013 Rise Set
Actual Time 5:39 AM CDT 8:31 PM CDT
Civil Twilight 5:07 AM CDT 9:03 PM CDT
Nautical Twilight 4:27 AM CDT 9:43 PM CDT
Astronomical Twilight 3:40 AM CDT 10:29 PM CDT
Moon 9:35 PM CDT (6/24) 7:05 AM CDT (6/24)
Length of Visible Light 15h 55m
Length of Day
14h 52m
Full, 98% of the Moon is Illuminated
Jun 24
Full
Jun 29
Last Quarter
Jul 8
New
Jul 15
First Quarter
Jul 22
Full

Hourly Weather History & Observations

Time (CDT) Temp. Heat Index Dew Point Humidity Pressure Visibility Wind Dir Wind Speed Gust Speed Precip Events Conditions
12:54 AM 68.0 °F - 64.9 °F 90% 30.00 in 10.0 mi East 3.5 mph - N/A   Clear
1:54 AM 68.0 °F - 66.0 °F 93% 30.00 in 10.0 mi Calm Calm - N/A   Clear
2:54 AM 69.1 °F - 66.0 °F 90% 29.99 in 10.0 mi Calm Calm - N/A   Clear
3:54 AM 68.0 °F - 64.9 °F 90% 29.99 in 10.0 mi Calm Calm - N/A   Clear
4:54 AM 68.0 °F - 64.9 °F 90% 29.99 in 10.0 mi Calm Calm - N/A   Clear
5:54 AM 66.9 °F - 64.9 °F 93% 30.01 in 7.0 mi Calm Calm - N/A   Scattered Clouds
6:54 AM 69.1 °F - 66.0 °F 90% 30.03 in 10.0 mi Calm Calm - N/A   Clear
7:54 AM 73.0 °F - 68.0 °F 84% 30.04 in 10.0 mi Calm Calm - N/A   Clear
8:54 AM 79.0 °F - 72.0 °F 79% 30.04 in 9.0 mi Calm Calm - N/A   Scattered Clouds
9:54 AM 82.9 °F 88.0 °F 72.0 °F 69% 30.04 in 10.0 mi SW 8.1 mph - N/A   Partly Cloudy
10:54 AM 84.9 °F 90.7 °F 72.0 °F 65% 30.02 in 10.0 mi South 6.9 mph - N/A   Clear
11:18 AM 86.0 °F 91.8 °F 71.6 °F 62% 30.04 in 1.8 mi SSW 10.4 mph - N/A   Haze
11:25 AM 87.8 °F 93.8 °F 71.6 °F 58% 30.04 in 10.0 mi WSW 9.2 mph - N/A   Clear
11:54 AM 88.0 °F 94.7 °F 72.0 °F 59% 30.01 in 10.0 mi WSW 6.9 mph - N/A   Clear
12:54 PM 89.1 °F 97.0 °F 73.0 °F 59% 30.00 in 10.0 mi West 5.8 mph - N/A   Partly Cloudy
1:54 PM 90.0 °F 96.9 °F 72.0 °F 55% 29.98 in 10.0 mi SSW 9.2 mph - N/A   Partly Cloudy
2:54 PM 90.0 °F 95.4 °F 70.0 °F 52% 29.96 in 10.0 mi SSW 9.2 mph - N/A   Partly Cloudy
3:54 PM 91.0 °F 96.6 °F 70.0 °F 50% 29.96 in 10.0 mi SSW 10.4 mph - N/A   Scattered Clouds
4:54 PM 91.0 °F 96.6 °F 70.0 °F 50% 29.94 in 10.0 mi SSW 9.2 mph - N/A   Partly Cloudy
5:54 PM 91.0 °F 97.6 °F 71.1 °F 52% 29.94 in 10.0 mi SSW 5.8 mph - N/A   Clear
6:54 PM 89.1 °F 95.0 °F 71.1 °F 55% 29.93 in 10.0 mi South 4.6 mph - N/A   Partly Cloudy
7:54 PM 86.0 °F 92.2 °F 72.0 °F 63% 29.91 in 10.0 mi Calm Calm - N/A   Scattered Clouds
8:54 PM 80.1 °F 84.2 °F 73.0 °F 79% 29.92 in 10.0 mi Calm Calm - N/A   Mostly Cloudy
9:54 PM 82.9 °F 87.0 °F 70.0 °F 65% 29.92 in 10.0 mi South 5.8 mph - N/A   Clear
10:54 PM 82.0 °F 85.9 °F 70.0 °F 67% 29.91 in 10.0 mi South 9.2 mph - N/A   Clear
11:54 PM 82.0 °F 85.9 °F 70.0 °F 67% 29.90 in 10.0 mi South 6.9 mph - N/A   Clear